Regional Weather Roundup
Issued by NWS Cleveland, OH

Home | Current Version | Previous Version | Graphics & Text | Print | Product List | Glossary On
Versions: 1 2 3 4 5 6 7 8 9 10 11 12 13 14 15 16 17 18 19 20 21 22 23 24 25 26 27 28 29 30 31 32 33 34 35 36 37 38 39 40 41 42 43 44 45 46 47 48 49 50
000
ASUS41 KCLE 241602
RWRCLE
OHIO REGIONAL WEATHER ROUNDUP
NATIONAL WEATHER SERVICE CLEVELAND, OH
1200 PM EDT SAT SEP 24 2016

NOTE: "FAIR" INDICATES FEW OR NO CLOUDS BELOW 12,000 FEET WITH NO
SIGNIFICANT WEATHER AND/OR OBSTRUCTIONS TO VISIBILITY.

OHZ001>008-015>018-024>027-034-035-043-044-241700-
   NORTHWEST OHIO

CITY           SKY/WX    TMP DP  RH WIND       PRES   REMARKS
DEFIANCE       CLOUDY    69  55  60 E10       30.23S
FINDLAY        CLOUDY    70  59  68 NE8       30.21S
TOLEDO EXPRESS CLOUDY    66  58  75 E12       30.24R
TOLEDO EXEC    CLOUDY    67  58  72 NE12G21   30.25R
LIMA           CLOUDY    67  63  87 NE10      30.22S
$$

OHZ009>014-019>023-028>033-038-089-241700-
   NORTHEAST OHIO

CITY           SKY/WX    TMP DP  RH WIND       PRES   REMARKS
CLE-HOPKINS    CLOUDY    69  51  52 NE12      30.25R
CLE-LAKEFRONT  MOSUNNY   70  51  51 NE14      30.22R
CUY CO. ARPT   MOSUNNY   68  54  60 NE12G21   30.23S
LORAIN-ELYRIA  CLOUDY    68  53  58 NE10G17   30.23R
ASHTABULA      SUNNY     66  49  54 E8        30.25R
AKRON-CANTON   MOSUNNY   69  53  56 NE10      30.21R
WOOSTER        PTSUNNY   70  56  61 N5        30.22R
MANSFIELD      CLOUDY    70  60  70 NE9       30.22R
YOUNGSTOWN     MOSUNNY   63  51  65 N12       30.22R
$$

OHZ042-051>053-060>062-070>072-077>081-241700-
  SOUTHWEST OHIO

CITY           SKY/WX    TMP DP  RH WIND       PRES   REMARKS
CINC-COVINGTON SUNNY     79  68  69 NE7       30.17R
CINC-LUNKEN    MOSUNNY   78  69  73 NE9       30.17R
HAMILTON       CLOUDY    75  67  76 NE7       30.19R
DAYTON         CLOUDY    70  65  84 NE8       30.21S
WRIGHT-PAT AFB CLOUDY    72  67  83 N7        30.19S
DAYTON GENERAL CLOUDY    70  64  81 NE9       30.19R HAZE
WILMINGTON     CLOUDY    72  66  81 NE8       30.19S
$$

OHZ036-037-039>041-045>050-054>059-063>069-073>076-082>088-241700-
  CENTRAL AND SOUTHEAST OHIO

CITY           SKY/WX    TMP DP  RH WIND       PRES   REMARKS
COLUMBUS       PTSUNNY   75  66  73 NE5       30.18R
OSU AIRPORT    CLOUDY    74  66  76 E7        30.19R
BOLTON FIELD   CLOUDY    73  64  73 N5        30.19R
RICKENBACK AFB PTSUNNY   74  64  71 NE7       30.18R
NEWARK         PTSUNNY   75  62  64 VRB3      30.18R
MARION         CLOUDY    72  60  66 NE10      30.21R
LANCASTER      MOSUNNY   77  64  64 VRB5      30.18S
ZANESVILLE     PTSUNNY   75  62  64 NE7       30.18S
NEW PHILLY     MOSUNNY   75  58  55 N9        30.19R
$$




USA.gov is the U.S. government's official web portal to all federal, state and local government web resources and services.